(192219) = 2007 RO23

Discovered at Catalina on 2007-09-03 by CSS.

Orbit

Orbit type: Main Belt

Note: WebGL enabled browser required.

epoch2023-09-13.0
epoch JD2460200.5
perihelion date2023-08-31.85957
perihelion JD2460188.35957
argument of perihelion (°)319.67529
ascending node (°)329.70415
inclination (°)10.68651
eccentricity0.1546372
perihelion distance (AU)2.6568179
Tisserand w.r.t. Jupiter3.2
ΔV w.r.t. Earth (km/sec)10.7
semimajor axis (AU)3.1428141
mean anomaly (°)2.14763
mean daily motion (°/day)0.17689920
aphelion distance (AU)3.629
period (years)5.57
P-vector [x]0.33748441
P-vector [y]-0.80887554
P-vector [z]-0.48148171
Q-vector [x]0.93667149
Q-vector [y]0.23773135
Q-vector [z]0.25715816
absolute magnitude15.14
phase slope0.15
uncertainty0
referenceMPEC 2024-A34
observations used509
oppositions16
arc length (days)9744
first opposition used1996
last opposition used2023
residual rms (arc-secs)0.84
perturbers coarse indicatorM-v
perturbers precise indicator003Ek
first observation date used1996-10-09.0
last observation date used2023-06-14.0
computer nameMPCLINUX
JD of orbit computation2456966.792180
perihelion JD uncertainty (days)3.3236E-04
argument of perihelion uncertainty (°)7.4648E-05
ascending node uncertainty (°)5.2349E-05
inclination uncertainty (°)1.3302E-05
eccentricity uncertainty 1.0384E-07
perihelion distance uncertainty (AU)3.1212E-07
Minimum Orbit Intersection Distances (in AU)
for orbit epoch: 2460200.5, reference: E2024-A34
Mercury2.20288
Venus1.93235
Earth1.65094
Mars1.24628
Jupiter1.66394
Saturn5.49813
Uranus14.9714
Neptune26.5192

Observations

523 total observations over interval: 1996 10 09.14952 – 2023 06 14.235361
These data are available for download (format description).

Date (UT) J2000 RA J2000 Dec Magn Location Ref
1996 10 09.14952 23 50 11.08 +09 24 45.7   691 – Steward Observatory, Kitt Peak-Spacewatch MPS 218134
1996 10 09.17104 23 50 10.10 +09 24 41.8   691 – Steward Observatory, Kitt Peak-Spacewatch MPS 218134
1996 10 09.19229 23 50 09.15 +09 24 38.0 19.3 V 691 – Steward Observatory, Kitt Peak-Spacewatch MPS 218134
1996 10 18.21944 23 44 12.94 +08 55 54.1   809 – European Southern Observatory, La Silla MPS 218134
1996 10 18.25069 23 44 12.18 +08 55 50.9   809 – European Southern Observatory, La Silla MPS 218134
2001 06 23.33101 21 03 07.66 -26 09 46.7 19.7   644 – Palomar Mountain/NEAT MPS 218134
2001 06 23.34243 21 03 07.41 -26 09 47.2 19.4   644 – Palomar Mountain/NEAT MPS 218134
2001 06 23.35494 21 03 07.10 -26 09 46.9 19.8   644 – Palomar Mountain/NEAT MPS 218134
2001 07 13.31154 20 51 15.47 -26 16 02.8 18.7   644 – Palomar Mountain/NEAT MPS 218134
2001 07 13.32217 20 51 14.94 -26 16 03.1 18.8   644 – Palomar Mountain/NEAT MPS 218134
2001 07 13.33287 20 51 14.39 -26 16 03.2 18.5   644 – Palomar Mountain/NEAT MPS 218134
2001 07 27.23442 20 38 47.47 -26 11 42.9 18.7   644 – Palomar Mountain/NEAT MPS 218134
2001 07 27.24562 20 38 46.82 -26 11 42.5 18.5   644 – Palomar Mountain/NEAT MPS 218134
2001 07 27.25624 20 38 46.19 -26 11 42.1 18.4   644 – Palomar Mountain/NEAT MPS 218134
2001 08 11.22472 20 25 06.78 -25 47 32.4 19.1   644 – Palomar Mountain/NEAT MPS 218134
2001 08 11.23615 20 25 06.16 -25 47 30.4 19.4   644 – Palomar Mountain/NEAT MPS 218134
2001 08 11.24867 20 25 05.50 -25 47 29.5 19.0   644 – Palomar Mountain/NEAT MPS 218134
2001 08 19.21148 20 18 57.17 -25 25 24.3   704 – Lincoln Laboratory ETS, New Mexico MPS 406892
2001 08 19.22413 20 18 56.60 -25 25 21.7   704 – Lincoln Laboratory ETS, New Mexico MPS 406892
2001 08 19.23670 20 18 56.10 -25 25 19.5   704 – Lincoln Laboratory ETS, New Mexico MPS 406892
2001 08 19.24932 20 18 55.51 -25 25 17.1   704 – Lincoln Laboratory ETS, New Mexico MPS 406892
2001 08 19.26194 20 18 54.95 -25 25 14.0   704 – Lincoln Laboratory ETS, New Mexico MPS 406892
2005 01 06.44220 11 00 37.01 +06 19 56.4   701 – Junk Bond Observatory, Sierra Vista MPS 218134
2005 01 06.46584 11 00 36.74 +06 19 54.1   701 – Junk Bond Observatory, Sierra Vista MPS 218134
2005 01 06.48943 11 00 36.63 +06 19 53.1   701 – Junk Bond Observatory, Sierra Vista MPS 218134
2005 02 01.40685 10 51 05.43 +06 17 56.6 20.5 V 691 – Steward Observatory, Kitt Peak-Spacewatch MPS 218134
2005 02 01.43265 10 51 04.50 +06 17 58.2 20.5 V 691 – Steward Observatory, Kitt Peak-Spacewatch MPS 218134
2005 02 01.45792 10 51 03.55 +06 18 00.1 20.7 V 691 – Steward Observatory, Kitt Peak-Spacewatch MPS 218134
2005 02 09.41947 10 45 45.72 +06 29 51.3 19.1 R G96 – Mt. Lemmon Survey MPS 218134
2005 02 09.43000 10 45 45.25 +06 29 52.2 19.3 R G96 – Mt. Lemmon Survey MPS 218134
2005 02 09.44050 10 45 44.80 +06 29 53.9 18.9 R G96 – Mt. Lemmon Survey MPS 218134
2005 02 09.45103 10 45 44.32 +06 29 54.9 19.4 R G96 – Mt. Lemmon Survey MPS 218134
2006 05 18.64640 15 30 19.83 -36 18 22.9 19.0 V E12 – Siding Spring Survey MPS 218134
2006 05 18.65549 15 30 19.26 -36 18 22.5 19.1 V E12 – Siding Spring Survey MPS 218134
2006 05 18.66454 15 30 18.75 -36 18 21.7 18.8 V E12 – Siding Spring Survey MPS 218134
2006 05 18.67363 15 30 18.14 -36 18 19.5 18.2 V E12 – Siding Spring Survey MPS 218134
2007 08 13.32358 23 52 02.97 +03 58 17.0 19.1   704 – Lincoln Laboratory ETS, New Mexico MPS 217773
2007 08 13.33544 23 52 02.61 +03 58 18.8 19.6   704 – Lincoln Laboratory ETS, New Mexico MPS 217773
2007 08 13.34729 23 52 02.28 +03 58 19.2 19.5   704 – Lincoln Laboratory ETS, New Mexico MPS 217773
2007 08 13.35914 23 52 01.92 +03 58 21.4 19.7   704 – Lincoln Laboratory ETS, New Mexico MPS 217773
2007 08 13.37097 23 52 01.66 +03 58 22.7 19.7   704 – Lincoln Laboratory ETS, New Mexico MPS 217773
2007 08 23.40239 23 46 19.52 +04 09 15.0 19.4 V 691 – Steward Observatory, Kitt Peak-Spacewatch MPS 218134
2007 08 23.41998 23 46 18.78 +04 09 15.3 19.4 V 691 – Steward Observatory, Kitt Peak-Spacewatch MPS 218134
2007 08 23.43757 23 46 18.06 +04 09 15.7 19.4 V 691 – Steward Observatory, Kitt Peak-Spacewatch MPS 218134
2007 09 03.34567 23 38 13.34 +04 06 18.3 19.1 V 703 – Catalina Sky Survey MPS 216336
2007 09 03.35399 23 38 12.84 +04 06 16.7 19.1 V 703 – Catalina Sky Survey MPS 216336
2007 09 03.36230 23 38 12.44 +04 06 15.7 18.8 V 703 – Catalina Sky Survey MPS 216336
2007 09 03.37065 23 38 12.08 +04 06 16.1 18.7 V 703 – Catalina Sky Survey MPS 216336
2007 09 07.24882 23 35 00.78 +04 01 53.3 18.5 C 704 – Lincoln Laboratory ETS, New Mexico MPS 291419
2007 09 07.25958 23 35 00.25 +04 01 52.2 18.6 C 704 – Lincoln Laboratory ETS, New Mexico MPS 291419
2007 09 07.27044 23 34 59.74 +04 01 52.2 18.6 C 704 – Lincoln Laboratory ETS, New Mexico MPS 291419
2007 09 07.28121 23 34 59.13 +04 01 51.4 18.6 C 704 – Lincoln Laboratory ETS, New Mexico MPS 291419
2007 09 10.25165 23 32 28.82 +03 57 29.9 18.5 V 703 – Catalina Sky Survey MPS 216336
2007 09 10.25872 23 32 28.42 +03 57 28.8 18.8 V 703 – Catalina Sky Survey MPS 216336
2007 09 10.27796 23 32 27.45 +03 57 27.0 18.7 V 703 – Catalina Sky Survey MPS 216336
2007 09 12.29277 23 30 44.29 +03 54 03.1 18.7 R 699 – Lowell Observatory-LONEOS MPS 216336
2007 09 12.31563 23 30 43.08 +03 54 01.6   699 – Lowell Observatory-LONEOS MPS 216336
2007 09 12.33847 23 30 41.91 +03 53 59.7   699 – Lowell Observatory-LONEOS MPS 216336
2007 09 12.36131 23 30 40.65 +03 53 56.3   699 – Lowell Observatory-LONEOS MPS 216336
2007 09 14.24130 23 29 04.37 +03 50 29.1 19.0   704 – Lincoln Laboratory ETS, New Mexico MPS 216336
2007 09 14.25300 23 29 03.79 +03 50 28.2 19.3   704 – Lincoln Laboratory ETS, New Mexico MPS 216336
2007 09 14.26469 23 29 03.15 +03 50 26.3 19.5   704 – Lincoln Laboratory ETS, New Mexico MPS 216336
2007 09 14.27644 23 29 02.53 +03 50 25.2 19.5   704 – Lincoln Laboratory ETS, New Mexico MPS 216336
2007 09 14.28814 23 29 01.88 +03 50 23.6 19.4   704 – Lincoln Laboratory ETS, New Mexico MPS 216336
2007 09 14.30496 23 29 01.06 +03 50 22.0 18.8 R 699 – Lowell Observatory-LONEOS MPS 216336
2007 09 14.32780 23 28 59.76 +03 50 19.2   699 – Lowell Observatory-LONEOS MPS 216336
2007 09 14.35064 23 28 58.61 +03 50 16.9   699 – Lowell Observatory-LONEOS MPS 216336
2007 09 14.37348 23 28 57.39 +03 50 13.2   699 – Lowell Observatory-LONEOS MPS 216336
2007 09 17.23724 23 26 31.08 +03 44 28.6 18.8   704 – Lincoln Laboratory ETS, New Mexico MPS 216336
2007 09 17.24916 23 26 30.49 +03 44 28.8 19.0   704 – Lincoln Laboratory ETS, New Mexico MPS 216336
2007 09 17.26108 23 26 29.89 +03 44 26.6 19.2   704 – Lincoln Laboratory ETS, New Mexico MPS 216336
2007 09 17.28505 23 26 28.63 +03 44 24.1 19.1   704 – Lincoln Laboratory ETS, New Mexico MPS 216336
2007 10 02.91091 23 14 12.02 +03 08 13.0 19.4   A77 – Observatoire Chante-Perdrix, Dauban MPS 218134
2007 10 02.92722 23 14 11.33 +03 08 11.0 19.7   A77 – Observatoire Chante-Perdrix, Dauban MPS 218134
2007 10 02.94341 23 14 10.67 +03 08 08.3 19.7   A77 – Observatoire Chante-Perdrix, Dauban MPS 218134
2007 10 07.19799 23 11 23.33 +02 58 21.8 19.4 r 699 – Lowell Observatory-LONEOS MPS 255246
2007 10 07.20157 23 11 23.28 +02 58 20.2 19.4 V 703 – Catalina Sky Survey MPS 218772
2007 10 07.20852 23 11 23.02 +02 58 20.4 19.2 V 703 – Catalina Sky Survey MPS 218772
2007 10 07.21549 23 11 22.66 +02 58 19.3 19.3 V 703 – Catalina Sky Survey MPS 218772
2007 10 07.22244 23 11 22.34 +02 58 17.1 19.3 V 703 – Catalina Sky Survey MPS 218772
2007 10 07.22358 23 11 22.34 +02 58 18.0   699 – Lowell Observatory-LONEOS MPS 255246
2007 10 07.24908 23 11 21.48 +02 58 14.6   699 – Lowell Observatory-LONEOS MPS 255246
2007 10 07.27466 23 11 20.41 +02 58 11.3   699 – Lowell Observatory-LONEOS MPS 255246
2007 10 09.19740 23 10 11.48 +02 53 58.6 19.6   704 – Lincoln Laboratory ETS, New Mexico MPS 218772
2007 10 09.20832 23 10 11.01 +02 53 57.2 20.2   704 – Lincoln Laboratory ETS, New Mexico MPS 218772
2007 10 09.21926 23 10 10.69 +02 53 53.5 20.3   704 – Lincoln Laboratory ETS, New Mexico MPS 218772
2007 10 09.24129 23 10 09.82 +02 53 53.4 19.8   704 – Lincoln Laboratory ETS, New Mexico MPS 218772
